Location: Bow
(51.5261°N, 0.0167°W)
Time: 23:05:35
(UTC+00:00)

Cosmos 1428 Rocket - Pass Details

Date: 18 September 2020
Orbit: 947 x 989 km, 82.9° (Epoch: 29 October)

Event Time Altitude Azimuth Distance (km) Brightness Sun altitude
Rises 20:07:11 0° 351° (N) 3,708 8.1 -18.8°
Reaches altitude 10° 20:09:46 10° 354° (N) 2,752 7.3 -19.1°
Maximum altitude 20:16:02 63° 76° (ENE) 1,084 4.5 -20.0°
Enters shadow 20:18:53 33° 146° (SE) 1,578 5.1 -20.4°
